Weather History for Kotzebue, AK

Change the Weather History Date:

Saturday, November 9, 2013

  Actual Average Record
Temperature  
Mean Temperature 33 °F 11 °F  
Max Temperature 38 °F 16 °F 38 °F (1994)
Min Temperature 28 °F - -22 °F (1956)
Degree Days  
Heating Degree Days 32 54  
Month to date heating degree days 387 470  
Since 1 July heating degree days 2681 3152  
Cooling Degree Days 0    
Month to date cooling degree days 0  
Year to date cooling degree days 13  
Moisture  
Dew Point 32 °F    
Average Humidity 0    
Maximum Humidity 0    
Minimum Humidity 0    
Precipitation  
Precipitation 0.13 in 0.03 in 0.62 in (2011)
Month to date precipitation 0.51 0.22  
Year to date precipitation 10.60 9.69  
Snow  
Snow 0.40 in 0.30 in 7.50 in (2011)
Month to date snowfall 2.7 2.6  
Since 1 July snowfall 3.6 9.5  
Since 1 September snowfall 3.6 9.5  
Snow Depth 1.00 in    
Sea Level Pressure  
Sea Level Pressure 29.15 in    
Wind  
Wind Speed 24 mph (South)    
Max Wind Speed 36 mph    
Max Gust Speed 45 mph    
Visibility 9 miles    
Events Rain , Snow    
T = Trace of Precipitation, MM = Missing Value Source: NWS Daily Summary

Daily Weather History Graph

Daily Weather History Graph

Search for Another Location

Airport:

Trip Planner

Search our weather history database for the weather conditions in past years. The results will help you decide how hot, cold, wet, or windy it might be!

Date:

Astronomy

Nov. 09, 2013 Rise Set
Actual Time 10:25 AM AKST 4:41 PM AKST
Civil Twilight 9:18 AM AKST 5:48 PM AKST
Nautical Twilight 8:12 AM AKST 6:55 PM AKST
Astronomical Twilight 7:09 AM AKST 7:57 PM AKST
Moon 3:30 PM AKST (11/9) No Moon Set
Length of Visible Light 8h 29m
Length of Day
6h 15m
Waxing Crescent, 46% of the Moon is Illuminated
Nov 9
Waxing Crescent
Nov 9
First Quarter
Nov 17
Full
Nov 25
Last Quarter
Dec 2
New

Hourly Weather History & Observations

Time (AKST) Temp. Windchill Dew Point Humidity Pressure Visibility Wind Dir Wind Speed Gust Speed Precip Events Conditions
12:06 AM 28.4 °F 14.4 °F 26.6 °F 93% 29.37 in 2.5 mi ESE 23.0 mph - 0.00 in Snow Light Snow
12:20 AM 28.4 °F 13.5 °F 26.6 °F 93% 29.37 in 3.0 mi ESE 26.5 mph 32.2 mph 0.02 in Snow Light Snow
12:43 AM 30.2 °F 16.5 °F 30.2 °F 100% 29.37 in 3.0 mi ESE 24.2 mph 28.8 mph 0.02 in Snow Light Snow
12:53 AM 32.0 °F 19.5 °F 30.9 °F 96% 29.37 in 5.0 mi SE 21.9 mph - 0.02 in Snow Blowing Snow
1:41 AM 35.6 °F 24.2 °F 33.8 °F 93% 29.35 in 9.0 mi SSE 21.9 mph - 0.01 in Snow Light Snow
1:53 AM 35.1 °F 23.3 °F 33.1 °F 92% 29.34 in 9.0 mi SSE 23.0 mph - 0.01 in Snow Light Snow
2:53 AM 36.0 °F 23.9 °F 33.1 °F 89% 29.33 in 10.0 mi South 25.3 mph - 0.00 in   Overcast
3:53 AM 35.1 °F 23.3 °F 32.0 °F 89% 29.32 in 10.0 mi South 23.0 mph - N/A   Overcast
4:53 AM 35.1 °F 23.3 °F 33.1 °F 92% 29.32 in 10.0 mi South 23.0 mph - 0.02 in   Overcast
5:50 AM 35.6 °F 24.2 °F 33.8 °F 93% 29.31 in 6.0 mi South 21.9 mph - 0.00 in Snow Light Snow
5:53 AM 35.1 °F 23.5 °F 33.1 °F 92% 29.31 in 6.0 mi South 21.9 mph - 0.00 in Snow Light Snow
6:36 AM 37.4 °F 26.1 °F 33.8 °F 87% 29.30 in 10.0 mi South 24.2 mph 33.4 mph 0.00 in Rain Light Rain
6:53 AM 37.9 °F 26.3 °F 34.0 °F 86% 29.29 in 10.0 mi South 26.5 mph 35.7 mph 0.00 in Rain Light Rain
7:53 AM 36.0 °F 24.4 °F 33.1 °F 89% 29.29 in 10.0 mi South 23.0 mph - 0.00 in Rain Light Rain
8:14 AM 35.6 °F 24.0 °F 32.0 °F 87% 29.29 in 10.0 mi SSE 23.0 mph - 0.00 in Rain Light Rain
8:38 AM 35.6 °F 23.7 °F 33.8 °F 93% 29.27 in 10.0 mi South 24.2 mph - 0.00 in Rain Light Rain
8:53 AM 37.0 °F 25.6 °F 33.1 °F 86% 29.26 in 10.0 mi SSE 24.2 mph - 0.00 in Rain Light Rain
9:53 AM 36.0 °F 24.2 °F 33.1 °F 89% 29.23 in 10.0 mi SSE 24.2 mph - 0.00 in   Overcast
10:53 AM 35.1 °F 22.7 °F 33.1 °F 92% 29.18 in 9.0 mi SSE 25.3 mph - 0.00 in Rain Light Rain
11:53 AM 35.1 °F 21.4 °F 33.1 °F 92% 29.13 in 10.0 mi SSE 32.2 mph 36.8 mph 0.00 in Rain Light Rain
12:53 PM 35.1 °F 21.6 °F 33.1 °F 92% 29.07 in 10.0 mi SSE 31.1 mph 35.7 mph 0.00 in Rain Light Rain
1:14 PM 35.6 °F 22.5 °F 33.8 °F 93% 29.05 in 10.0 mi SSE 29.9 mph 34.5 mph 0.00 in Rain Light Rain
1:30 PM 35.6 °F 22.3 °F 33.8 °F 93% 29.04 in 10.0 mi SSE 31.1 mph 36.8 mph 0.00 in Rain Light Rain
1:40 PM 35.6 °F 22.3 °F 33.8 °F 93% 29.03 in 10.0 mi SSE 31.1 mph - 0.00 in Rain Light Rain
1:53 PM 36.0 °F 23.0 °F 33.1 °F 89% 29.03 in 10.0 mi SSE 29.9 mph 38.0 mph 0.00 in Rain Light Rain
2:53 PM 35.1 °F 23.5 °F 33.1 °F 92% 29.01 in 10.0 mi South 21.9 mph 32.2 mph 0.02 in Rain Light Rain
3:38 PM 37.4 °F 26.1 °F 33.8 °F 87% 29.00 in 10.0 mi South 24.2 mph 33.4 mph 0.00 in Rain Light Rain
3:45 PM 37.4 °F 26.1 °F 33.8 °F 87% 29.00 in 10.0 mi South 24.2 mph - 0.00 in Rain Light Rain
3:53 PM 37.0 °F 24.9 °F 33.1 °F 86% 29.00 in 10.0 mi South 27.6 mph 34.5 mph 0.00 in Rain Light Rain
4:53 PM 36.0 °F 25.0 °F 32.0 °F 86% 28.98 in 10.0 mi South 20.7 mph 28.8 mph 0.00 in   Overcast
5:53 PM 35.1 °F 23.8 °F 32.0 °F 89% 28.98 in 8.0 mi South 20.7 mph - N/A   Overcast
6:00 PM 35.6 °F 24.8 °F 32.0 °F 87% 28.98 in 8.0 mi South 19.6 mph - 0.00 in Rain Light Rain
6:53 PM 36.0 °F 25.0 °F 32.0 °F 86% 28.98 in 10.0 mi South 20.7 mph - 0.02 in Rain Light Rain
7:53 PM 35.1 °F 23.3 °F 32.0 °F 89% 28.98 in 10.0 mi SSW 23.0 mph 31.1 mph 0.03 in Rain Light Rain
8:00 PM 35.6 °F 24.5 °F 32.0 °F 87% 28.98 in 10.0 mi SSW 20.7 mph 29.9 mph 0.00 in Rain Light Rain
8:53 PM 35.1 °F 24.1 °F 32.0 °F 89% 29.00 in 10.0 mi SSW 19.6 mph 26.5 mph 0.00 in Rain Light Rain
9:53 PM 34.0 °F 23.8 °F 32.0 °F 92% 29.01 in 10.0 mi SSW 16.1 mph - 0.01 in Rain Light Rain
10:20 PM 35.6 °F 23.7 °F 30.2 °F 81% 29.02 in 10.0 mi SSW 24.2 mph 32.2 mph 0.00 in Rain Light Rain
10:33 PM 33.8 °F 19.2 °F 28.4 °F 81% 29.03 in 10.0 mi SW 34.5 mph 42.6 mph 0.00 in Rain Light Rain
10:53 PM 33.1 °F 19.6 °F 30.0 °F 89% 29.04 in 6.0 mi SW 27.6 mph 34.5 mph 0.00 in Rain Light Rain
11:00 PM 33.8 °F 20.3 °F 30.2 °F 87% 29.04 in 5.0 mi SW 28.8 mph 34.5 mph 0.00 in Rain Light Rain
11:08 PM 33.8 °F 20.5 °F 30.2 °F 87% 29.05 in 6.0 mi SW 27.6 mph 35.7 mph 0.00 in Rain Light Rain
11:53 PM 32.0 °F 18.4 °F 30.9 °F 96% 29.08 in 3.0 mi West 26.5 mph - 0.00 in Rain Light Rain